Date String (YYYY-MM-DD hh:mm:ss) UTC,Instrument flags,absolute air pressure of the measurement (hPa),sample flow rate (lpm),inlet stack bypass flow (lpm),air temperature of the measurement (°C),ambient temperature measured by the external sensor (°C),aerosol sample conditioner tube jacket temperature (°C),OPC LED temperature (°C),internal box temperature (°C),relative humidity of the measurement (%),span deviation,mass concentration of particles derived from Lorenz-Mie calculation of OPC scattering (μg/m³),mass concentration of particles derived from Lorenz-Mie calculation of OPC scattering (μg/m³),mass concentration of particles derived from Lorenz-Mie calculation of OPC scattering (μg/m³)
DateTimeUTC,F1_M11,P_M11,Q1_M11,Q2_M11,T1_M11,T2_M11,T3_M11,T4_M11,T5_M11,U1_M11,ZSPAN_M11,X2_M11,X0_M11,X1_M11
2023-07-22 02:00:00,SystemResetWarning,0836.6,5.00,000.00,029.3,027.8,000.0,037.6,030.9,27.7,0000.0,0004.34,0009.24,0003.57
2023-07-22 02:01:00,SystemResetWarning,0836.6,5.00,000.00,029.3,027.9,000.0,037.6,030.9,28.1,0000.0,0004.41,0009.37,0003.62
2023-07-22 02:02:00,SystemResetWarning,0836.6,5.00,000.00,029.3,028.0,000.0,037.6,030.9,29.0,0000.0,0004.49,0009.29,0003.65
2023-07-22 02:03:00,SystemResetWarning,0836.6,5.00,000.00,029.4,028.1,000.0,037.7,030.9,29.5,0000.0,0004.58,0009.51,0003.68
2023-07-22 02:04:00,SystemResetWarning,0836.6,4.98,000.00,029.4,026.9,000.0,037.6,030.9,28.7,0000.0,0004.70,0009.79,0003.71
2023-07-22 02:05:00,SystemResetWarning,0836.6,5.01,000.00,029.3,025.5,000.0,037.5,030.6,28.0,0000.0,0004.82,0010.05,0003.74
2023-07-22 02:06:00,SystemResetWarning,0836.5,5.01,000.00,029.2,025.1,000.0,037.4,030.4,28.5,0000.0,0004.86,0010.09,0003.76
2023-07-22 02:07:00,SystemResetWarning,0836.5,5.00,000.00,029.1,025.3,000.0,037.5,030.3,28.5,0000.0,0004.89,0009.91,0003.76
2023-07-22 02:08:00,SystemResetWarning,0836.4,5.00,000.00,029.1,025.7,000.0,037.5,030.4,28.4,0000.0,0004.88,0009.73,0003.75
2023-07-22 02:09:00,SystemResetWarning,0836.4,5.00,000.00,029.1,026.2,000.0,037.5,030.4,27.9,0000.0,0004.86,0009.65,0003.73
2023-07-22 02:10:00,SystemResetWarning,0836.5,5.00,000.00,029.1,026.5,000.0,037.5,030.5,30.0,0000.0,0004.78,0009.25,0003.69
2023-07-22 02:11:00,SystemResetWarning,0836.4,5.01,000.00,029.1,026.8,000.0,037.5,030.6,31.3,0000.0,0004.69,0008.66,0003.63
2023-07-22 02:12:00,SystemResetWarning,0836.4,5.00,000.00,029.1,027.1,000.0,037.5,030.6,30.6,0000.0,0004.56,0008.44,0003.55
2023-07-22 02:13:00,SystemResetWarning,0836.3,4.99,000.00,029.1,027.3,000.0,037.5,030.7,29.0,0000.0,0004.40,0008.07,0003.46
2023-07-22 02:14:00,SystemResetWarning,0836.4,4.99,000.00,029.1,027.5,000.0,037.5,030.7,29.2,0000.0,0004.29,0008.75,0003.40
2023-07-22 02:15:00,SystemResetWarning,0836.4,5.00,000.00,029.2,027.6,000.0,037.6,030.8,29.7,0000.0,0004.18,0008.60,0003.33
2023-07-22 02:16:00,SystemResetWarning,0836.4,4.99,000.00,029.2,027.7,000.0,037.6,030.8,29.5,0000.0,0004.03,0008.52,0003.27
2023-07-22 02:17:00,SystemResetWarning,0836.4,5.00,000.00,029.2,027.8,000.0,037.6,030.8,28.7,0000.0,0003.95,0008.36,0003.23
2023-07-22 02:18:00,SystemResetWarning,0836.3,5.01,000.00,029.3,027.9,000.0,037.6,030.9,28.8,0000.0,0003.89,0008.32,0003.20
2023-07-22 02:19:00,SystemResetWarning,0836.3,5.00,000.00,029.3,027.9,000.0,037.6,030.9,28.4,0000.0,0003.88,0008.30,0003.18
2023-07-22 02:20:00,SystemResetWarning,0836.2,5.00,000.00,029.3,028.0,000.0,037.6,030.9,28.5,0000.0,0003.89,0008.32,0003.18
2023-07-22 02:21:00,SystemResetWarning,0836.1,5.01,000.00,029.3,028.1,000.0,037.7,031.0,27.8,0000.0,0003.90,0008.51,0003.16
2023-07-22 02:22:00,SystemResetWarning,0836.1,5.00,000.00,029.4,028.1,000.0,037.7,031.0,27.7,0000.0,0003.89,0008.49,0003.15
2023-07-22 02:23:00,SystemResetWarning,0836.1,4.99,000.00,029.4,028.1,000.0,037.7,031.0,27.8,0000.0,0003.86,0008.44,0003.15
2023-07-22 02:24:00,SystemResetWarning,0836.1,5.00,000.00,029.4,027.4,000.0,037.7,031.0,27.8,0000.0,0003.87,0008.46,0003.16
2023-07-22 02:25:00,SystemResetWarning,0836.1,5.00,000.00,029.3,025.6,000.0,037.5,030.6,27.9,0000.0,0003.90,0007.76,0003.17
2023-07-22 02:26:00,SystemResetWarning,0836.1,5.01,000.00,029.2,024.9,000.0,037.5,030.4,28.3,0000.0,0003.93,0007.61,0003.17
2023-07-22 02:27:00,SystemResetWarning,0836.1,5.01,000.00,029.1,025.0,000.0,037.5,030.1,28.4,0000.0,0003.96,0008.16,0003.19
2023-07-22 02:28:00,SystemResetWarning,0836.1,5.00,000.00,029.0,025.4,000.0,037.5,030.2,28.5,0000.0,0003.92,0008.00,0003.20
2023-07-22 02:29:00,SystemResetWarning,0836.1,5.00,000.00,029.0,025.8,000.0,037.5,030.3,28.6,0000.0,0003.91,0007.93,0003.21
2023-07-22 02:30:00,SystemResetWarning,0836.1,5.00,000.00,029.0,026.2,000.0,037.5,030.4,28.6,0000.0,0003.88,0007.93,0003.21
2023-07-22 02:31:00,SystemResetWarning,0836.1,5.00,000.00,029.0,026.6,000.0,037.5,030.4,28.5,0000.0,0003.87,0007.96,0003.21
2023-07-22 02:32:00,SystemResetWarning,0836.1,5.00,000.00,029.0,026.8,000.0,037.5,030.5,28.0,0000.0,0003.81,0007.74,0003.22
2023-07-22 02:33:00,SystemResetWarning,0836.2,4.98,000.00,029.0,027.1,000.0,037.5,030.6,28.1,0000.0,0003.82,0007.68,0003.23
2023-07-22 02:34:00,SystemResetWarning,0836.2,4.99,000.00,029.0,027.2,000.0,037.5,030.6,28.0,0000.0,0003.82,0007.70,0003.23
2023-07-22 02:35:00,SystemResetWarning,0836.2,5.00,000.00,029.0,027.4,000.0,037.5,030.7,28.0,0000.0,0003.83,0007.75,0003.21
2023-07-22 02:36:00,SystemResetWarning,0836.2,5.00,000.00,029.1,027.5,000.0,037.5,030.7,27.8,0000.0,0003.83,0007.80,0003.20
2023-07-22 02:37:00,SystemResetWarning,0836.2,5.01,000.00,029.1,027.6,000.0,037.5,030.7,27.4,0000.0,0003.79,0007.68,0003.19
2023-07-22 02:38:00,SystemResetWarning,0836.2,5.02,000.00,029.1,027.7,000.0,037.5,030.8,27.1,0000.0,0003.75,0006.92,0003.18
2023-07-22 02:39:00,SystemResetWarning,0836.3,4.99,000.00,029.2,027.8,000.0,037.5,030.8,27.1,0000.0,0003.75,0006.55,0003.17
2023-07-22 02:40:00,SystemResetWarning,0836.4,4.99,000.00,029.2,027.9,000.0,037.6,030.8,26.8,0000.0,0003.76,0006.65,0003.15
2023-07-22 02:41:00,SystemResetWarning,0836.4,5.00,000.00,029.2,027.9,000.0,037.6,030.8,27.1,0000.0,0003.73,0006.84,0003.14
2023-07-22 02:42:00,SystemResetWarning,0836.5,4.99,000.00,029.3,028.0,000.0,037.6,030.9,26.9,0000.0,0003.72,0006.92,0003.13
2023-07-22 02:43:00,SystemResetWarning,0836.5,5.01,000.00,029.3,028.1,000.0,037.6,030.9,27.2,0000.0,0003.69,0006.78,0003.12
2023-07-22 02:44:00,SystemResetWarning,0836.5,5.01,000.00,029.3,028.1,000.0,037.6,031.0,26.9,0000.0,0003.65,0007.03,0003.11
2023-07-22 02:45:00,SystemResetWarning,0836.5,5.00,000.00,029.3,028.2,000.0,037.7,031.0,26.7,0000.0,0003.62,0006.88,0003.09
2023-07-22 02:46:00,SystemResetWarning,0836.5,4.99,000.00,029.4,028.0,000.0,037.7,031.0,26.7,0000.0,0003.61,0006.77,0003.09
2023-07-22 02:47:00,SystemResetWarning,0836.5,5.00,000.00,029.3,026.2,000.0,037.6,030.8,26.3,0000.0,0003.57,0006.57,0003.09
2023-07-22 02:48:00,SystemResetWarning,0836.5,5.00,000.00,029.3,025.1,000.0,037.5,030.6,26.1,0000.0,0003.54,0006.48,0003.08
2023-07-22 02:49:00,SystemResetWarning,0836.5,5.00,000.00,029.1,025.0,000.0,037.5,030.4,26.2,0000.0,0003.53,0006.42,0003.09
2023-07-22 02:50:00,SystemResetWarning,0836.4,5.01,000.00,029.1,025.4,000.0,037.5,030.3,26.2,0000.0,0003.52,0006.40,0003.09
2023-07-22 02:51:00,SystemResetWarning,0836.4,5.01,000.00,029.0,025.8,000.0,037.5,030.4,26.6,0000.0,0003.50,0006.78,0003.06
2023-07-22 02:52:00,SystemResetWarning,0836.3,5.00,000.00,029.0,026.2,000.0,037.5,030.4,26.5,0000.0,0003.51,0006.59,0003.06
2023-07-22 02:53:00,SystemResetWarning,0836.3,5.00,000.00,029.0,026.5,000.0,037.5,030.5,26.5,0000.0,0003.48,0006.25,0003.02
2023-07-22 02:54:00,SystemResetWarning,0836.3,4.98,000.00,029.0,026.9,000.0,037.5,030.5,26.7,0000.0,0003.48,0006.24,0003.00
2023-07-22 02:55:00,SystemResetWarning,0836.3,4.99,000.00,029.0,027.1,000.0,037.5,030.6,26.7,0000.0,0003.46,0005.83,0002.97
2023-07-22 02:56:00,SystemResetWarning,0836.3,5.01,000.00,029.1,027.3,000.0,037.5,030.7,26.6,0000.0,0003.45,0005.74,0002.97
2023-07-22 02:57:00,SystemResetWarning,0836.3,5.01,000.00,029.1,027.5,000.0,037.5,030.7,26.6,0000.0,0003.42,0005.61,0002.97
2023-07-22 02:58:00,SystemResetWarning,0836.3,5.00,000.00,029.1,027.6,000.0,037.5,030.7,26.6,0000.0,0003.41,0005.47,0002.97
2023-07-22 02:59:00,SystemResetWarning,0836.3,5.00,000.00,029.1,027.8,000.0,037.6,030.8,27.1,0000.0,0003.43,0005.56,0002.97
